Regional Weather Roundup
Issued by NWS

Home | Current Version | Previous Version | Text Only | Print | Product List | Glossary Off
Versions: 1 2 3 4 5 6 7 8 9 10 11 12 13 14 15 16 17 18 19 20 21 22 23 24 25 26 27 28 29 30 31 32 33 34 35 36 37 38 39 40 41 42 43 44 45 46 47 48 49 50

000
ASUS45 KCYS 281910
RWRWY

WYOMING REGIONAL WEATHER ROUNDUP
NATIONAL WEATHER SERVICE CHEYENNE WY
1200 PM MST WED JAN 28 2015

NOTE:  "FAIR" INDICATES FEW OR NO CLOUDS BELOW 12,000 FEET
WITH NO SIGNIFICANT WEATHER AND/OR OBSTRUCTIONS TO VISIBILITY.

WYZ001-282000-
YELLOWSTONE NATIONAL PARK

CITY           SKY/WX    TMP DP  RH WIND       PRES   REMARKS
LK YELLOWSTONE   N/A     32  30  92 CALM      30.25S
W YELLOWSTONE  NOT AVBL

$$
WYZ002>013-054>058-071-098>099-282000-
NORTHERN WYOMING

CITY           SKY/WX    TMP DP  RH WIND       PRES   REMARKS
JACKSON        MOSUNNY   39  32  75 S6        30.24R WCI  35
CODY           CLOUDY    45  36  70 CALM      30.15S
GREYBULL       CLOUDY    38  37  97 SE6       30.15S WCI  33
WORLAND        CLOUDY    36  35  96 S7        30.15R WCI  30
SHERIDAN       FAIR      49  30  48 NW20      30.10S
BUFFALO        FAIR      47  29  49 N32G41    30.09R
GILLETTE       CLOUDY    49  31  49 NW17      30.04S
HULETT           N/A    N/A N/A N/A MISG        N/A
NEWCASTLE      FAIR      46  27  46 NW24G31   30.01R

$$
WYZ014>020-022>026-101>103-282000-
CENTRAL WYOMING

CITY           SKY/WX    TMP DP  RH WIND       PRES   REMARKS
BIG PINEY      FAIR      35  31  85 CALM      30.24S
PINEDALE       FAIR      34  28  80 NW7       30.24S WCI  28
DUBOIS         FAIR      41  27  56 NW18      30.17R
LANDER         CLOUDY    40  30  67 N10       30.15R WCI  33
RIVERTON       FAIR      40  30  67 NE3       30.16R
CASPER         LGT RAIN  37  36  96 NW6       30.15R WCI  32
DOUGLAS        LGT RAIN  38  36  92 W14       30.12S WCI  30

$$
WYZ021-027>030-104>119-282000-
SOUTHERN WYOMING

CITY           SKY/WX    TMP DP  RH WIND       PRES   REMARKS
EVANSTON       CLOUDY    37  31  78 SW14      30.28S WCI  28
KEMMERER       CLOUDY    34  32  93 W15       30.26S WCI  24
FORT BRIDGER   FAIR      41  33  73 W23       30.30R
ROCK SPRINGS   FAIR      40  30  67 W24G32    30.21F WCI  29
DIXON          CLOUDY    43  33  67 SW9       30.27F
RAWLINS        PTSUNNY   41  30  65 W26G33    30.18S
SARATOGA       FAIR      39  30  70 W24G32    30.21R WCI  28
LARAMIE        CLOUDY    40  27  59 W17       30.12R WCI  31
CHEYENNE       CLOUDY    49  27  42 NW24G32   30.07F
TORRINGTON     PTSUNNY   48  37  65 NW22G33   30.03R
PINE BLUFFS    FAIR      54  30  40 NW35G44   30.03S

$$


USA.gov is the U.S. government's official web portal to all federal, state and local government web resources and services.